Home   Weather   Ica   Past weeks

Flag for Peru Past Weather in Ica, Ica, Peru — Yesterday and Last 2 Weeks

Now
66 °F

Scattered clouds.


Feels Like: 66 °F
Forecast: 57 / 89 °F
Wind: 2 mph from North

Location: Pisco Airport

Current Time: Oct 1, 2016 at 8:51:16 AM

Latest Report: Oct 1, 2016 at 8:00 AM


Visibility: 5 mi

Pressure: 29.98 "Hg

Humidity: 73%

Dew Point: 57 °F

Location of IcaLocation

Past Weather in Ica — Graph

°F

Ica Temperature Yesterday

Maximum temperature yesterday: 72 °F (at 3:00 PM)
Minimum temperature yesterday: 63 °F (at 7:00 PM)
Average temperature yesterday: 65 °F

High & Low Weather Summary for the Past Weeks

 TemperatureHumidityPressure
High72 °F (Sep 18, 4:00 PM)100% (Sep 17, 6:00 AM)30.04 "Hg (Sep 17, 6:00 AM)
Low55 °F (Sep 21, 6:00 AM)61% (Sep 30, 3:00 PM)29.83 "Hg (Sep 18, 3:00 PM)
Average64 °F83%29.94 "Hg
* Reported Sep 16 8:00 AM — Oct 1 8:00 AM, Ica, Weather by CustomWeather, © 2016

Note: Actual official high and low records may vary slightly from our data, if they occured in-between our weather recording intervals... More about our weather records

Advertising

Ica Weather History for the Previous 24 Hours

Scroll right to see more
 ConditionsComfort  
Time TempWeatherWind HumidityBarometerVisibility
8:00 AM
Sat, Oct 1
66 °FScattered clouds.2 mph73%29.98 "Hg5 mi
7:00 AM61 °FPassing clouds.6 mph88%29.95 "Hg5 mi
6:00 AM59 °FScattered clouds.7 mph88%29.95 "Hg5 mi
5:00 AM59 °FClear.3 mph82%29.92 "Hg5 mi
4:00 AM59 °FClear.6 mph88%29.92 "Hg5 mi
3:00 AM59 °FClear.6 mph88%29.92 "Hg5 mi
2:00 AM59 °FClear.2 mph88%29.92 "Hg5 mi
1:00 AM59 °FClear.3 mph88%29.92 "Hg10 mi
12:00 AM63 °FClear.10 mph83%29.95 "Hg10 mi
11:00 PM
Fri, Sep 30
63 °FClear.14 mph88%29.98 "Hg10 mi
10:00 PM63 °FClear.16 mph88%29.95 "Hg10 mi
9:00 PM63 °FClear.17 mph83%29.95 "Hg10 mi
8:00 PM63 °FClear.16 mph88%29.95 "Hg10 mi
7:00 PM63 °FClear.20 mph88%29.92 "Hg10 mi
6:00 PM64 °FScattered clouds.21 mph78%29.92 "HgN/A
5:00 PM66 °FPartly sunny.17 mph78%29.89 "HgN/A
4:00 PM70 °FSunny.20 mph64%29.89 "Hg10 mi
3:00 PM72 °FSunny.15 mph61%29.89 "Hg10 mi
2:00 PM70 °FSunny.9 mph64%29.92 "Hg10 mi
1:00 PM70 °FScattered clouds.8 mph69%29.95 "HgN/A
9:00 AM64 °FOvercast.13 mph83%30.01 "HgN/A
8:00 AM64 °FOvercast.10 mph83%30.01 "HgN/A
Weather by CustomWeather, © 2016

See weather overviewHow to use our weather pages